Regional Weather Roundup
Issued by NWS

Home | Current Version | Previous Version | Text Only | Print | Product List | Glossary On
Versions: 1 2 3 4 5 6 7 8 9 10 11 12 13 14 15 16 17 18 19 20 21 22 23 24 25 26 27
000
ASUS45 KREV 280510
RWRNV
NEVADA REGIONAL WEATHER ROUNDUP
NATIONAL WEATHER SERVICE RENO NV
1000 PM PDT FRI MAY 27 2016

NOTE: "FAIR" INDICATES FEW OR NO CLOUDS BELOW 12,000 FEET WITH NO
SIGNIFICANT WEATHER AND/OR OBSTRUCTIONS TO VISIBILITY.

NVZ001-003-004-280600-
WESTERN NEVADA

CITY           SKY/WX    TMP DP  RH WIND       PRES   REMARKS
RENO           PTCLDY    63  38  39 N14       29.98R
CARSON CITY    FAIR      57  36  44 N8        30.01R
MINDEN         FAIR      55  37  50 W3        30.00R
SLIDE MTN        N/A     41  25  52 CALM        N/A
FALLON         PTCLDY    68  25  19 NW9       29.94R
LOVELOCK       PTCLDY    64  27  24 N13       29.94R
HAWTHORNE      PTCLDY    68  36  30 N7        29.95R
$$

NVZ002-CAZ072-073-280600-
NORTHERN AND CENTRAL SIERRA

CITY           SKY/WX    TMP DP  RH WIND       PRES   REMARKS
S. LAKE TAHOE  CLEAR     48  39  71 VRB3      30.06R
TRUCKEE        CLEAR     43  34  70 CALM      30.07R
SQUAW VLY 8000 NOT AVBL
SUSANVILLE     MOCLDY    61  30  31 NW5       30.01R
BLUE CANYON    CLEAR     56  32  40 N3        30.05R
MAMMOTH LAKES  FAIR      51  37  58 W6        30.09R
BRIDGEPORT     FAIR      49  34  56 CALM      30.06R
$$

NVZ030-031-036-280600-
NORTHERN NEVADA

CITY           SKY/WX    TMP DP  RH WIND       PRES   REMARKS
ELKO           PTCLDY    58  36  43 N8        29.98R
WINNEMUCCA     CLEAR     57  26  30 NE7       29.99R
WENDOVER       CLEAR     57  43  58 SW3       29.96R
$$

NVZ035-037-280600-
CENTRAL NEVADA

CITY           SKY/WX    TMP DP  RH WIND       PRES   REMARKS
ELY            CLOUDY    55  34  45 SE6       30.02R
EUREKA           N/A     47  34  60 VRB3      30.01R
$$

NVZ013-014-280600-
SOUTH CENTRAL NEVADA

CITY           SKY/WX    TMP DP  RH WIND       PRES   REMARKS
TONOPAH        MOCLDY    65  32  29 NW16G25   29.98R
$$

NVZ017-020-022-280600-
SOUTHERN NEVADA

CITY           SKY/WX    TMP DP  RH WIND       PRES   REMARKS
LAS VEGAS      PTCLDY    81  25  12 S6        29.74R
N. LAS VEGAS   CLEAR     82  28  14 S6        29.77R
NELLIS AFB     CLEAR     84  30  14 S9        29.75R
HENDERSON      CLEAR     78  31  17 S8        29.82R
MERCURY        CLEAR     68  23  18 E6        29.83R
$$




USA.gov is the U.S. government's official web portal to all federal, state and local government web resources and services.